Find STARLINK-38119

NORAD ID: 100009 Int'l Des: 2026-160J Owner: SPXS Country: US Constellation: starlink operational

Current View

Loading 3D Globe...

About STARLINK-38119

STARLINK-38119 (NORAD 100009) is a starlink constellation satellite (v2 mini) launched Jul 14, 2026 by SPXS of US. with a mass of 575.00 kg.

Upcoming Passes

Passes for default location (London). Set your location on the main map for personalized predictions.

Altitude History

Loading altitude history...

Two-Line Element Set

1 A0009U 26160J 26224.60633025 .00109384 00000-0 79382-3 0 9992
2 A0009 69.9998 305.2688 0003377 300.0284 60.0578 15.72913926 5860
Epoch: Aug 12, 2026 • Age: 24 hours

Current Status

Altitude 360.8 km
Apogee / Perigee N/A
Velocity 7.69 km/s
Sub-Earth Point -35.61°S, 103.2°E
Launch Date Jul 14, 2026
Age 30 days
Type internet

Technical Details

Classification Payload
Mass 575.00 kg
Dry Mass 530.00 kg
Total Mass 575.00 kg
Length 0.30 m
Diameter 4.10 m
Span 29.00 m
Shape Box + pan
Manufacturer SPXS
Bus Type Starlink V2MO
Phase Status In Orbit
Owner/State SPXS/US

Most Searched